Location: Czekanka
(50.4925°N, 19.2643°E)
Time: 13:23:26
(UTC+00:00)

IDEFIX/ARIANE 42P - Pass Details

Date: 15 June 2024
Orbit: 782 x 800 km, 98.5° (Epoch: 16 July)

Event Time Altitude Azimuth Distance (km) Brightness Sun altitude
Rises 01:42:26 0° 8° (N) 3,320 6.9 -6.3°
Reaches altitude 10° 01:44:58 10° 359° (N) 2,383 5.8 -6.0°
Maximum altitude 01:49:34 32° 298° (WNW) 1,349 3.7 -5.5°
Drops below altitude 10° 01:54:08 10° 237° (WSW) 2,361 4.4 -5.0°
Enters shadow 01:55:12 - 232° (SW) 2,742 4.7 -4.9°
